| time (UTC) | temp C | wind direction | speed KPH | gust KPH | rain 1hr cm | rain 24hr cm | rain mn cm | humidity % | barometer mb |
| 20260507140516 | 8 | 282 | 3.2 | 0.0 | 0.00 | 4.19 | 0.00 | 90 | 1016.8 |
| 20260507140016 | 8 | 256 | 3.2 | 0.0 | 0.00 | 4.19 | 0.00 | 90 | 1016.7 |
| 20260507135516 | 9 | 316 | 8.0 | 0.0 | 0.00 | 4.19 | 0.00 | 91 | 1016.7 |
| 20260507135016 | 8 | 308 | 3.2 | 0.0 | 0.00 | 4.19 | 0.00 | 92 | 1016.7 |
| 20260507134516 | 8 | 289 | 6.4 | 0.0 | 0.00 | 4.19 | 0.00 | 93 | 1016.6 |
| 20260507134016 | 8 | 309 | 4.8 | 0.0 | 0.00 | 4.19 | 0.00 | 92 | 1016.5 |
| 20260507133516 | 8 | 315 | 4.8 | 0.0 | 0.00 | 4.19 | 0.00 | 92 | 1016.6 |
| 20260507133016 | 8 | 306 | 4.8 | 0.0 | 0.00 | 4.19 | 0.00 | 92 | 1016.5 |
| 20260507132516 | 8 | 327 | 6.4 | 0.0 | 0.00 | 4.19 | 0.00 | 91 | 1016.5 |
| 20260507132016 | 8 | 339 | 3.2 | 0.0 | 0.00 | 4.19 | 0.00 | 92 | 1016.5 |
| 20260507131516 | 8 | 264 | 3.2 | 0.0 | 0.00 | 4.19 | 0.00 | 92 | 1016.4 |
| 20260507131016 | 8 | 291 | 4.8 | 0.0 | 0.00 | 4.19 | 0.00 | 92 | 1016.4 |
| 20260507130516 | 8 | 326 | 6.4 | 0.0 | 0.00 | 4.19 | 0.00 | 92 | 1016.3 |
| 20260507130016 | 8 | 296 | 8.0 | 0.0 | 0.00 | 4.19 | 0.00 | 92 | 1016.3 |
| 20260507125516 | 8 | 286 | 3.2 | 0.0 | 0.05 | 4.19 | 0.00 | 92 | 1016.2 |
| 20260507125016 | 8 | 298 | 3.2 | 0.0 | 0.00 | 4.19 | 0.00 | 92 | 1016.2 |
| 20260507124516 | 8 | 312 | 3.2 | 0.0 | 0.00 | 4.19 | 0.00 | 92 | 1016.2 |
| 20260507124016 | 8 | 315 | 3.2 | 0.0 | 0.00 | 4.19 | 0.00 | 92 | 1016.1 |
| 20260507123516 | 8 | 302 | 1.6 | 0.0 | 0.00 | 4.19 | 0.00 | 92 | 1016.1 |
| 20260507123016 | 8 | 348 | 3.2 | 0.0 | 0.03 | 4.19 | 0.00 | 93 | 1016.0 |
| 20260507122516 | 8 | 298 | 4.8 | 0.0 | 0.13 | 4.19 | 0.00 | 92 | 1015.9 |
| 20260507122016 | 8 | 358 | 6.4 | 0.0 | 0.03 | 4.19 | 0.00 | 93 | 1015.9 |
| 20260507121516 | 8 | 343 | 4.8 | 0.0 | 0.00 | 4.19 | 0.00 | 93 | 1015.9 |
| 20260507121016 | 8 | 307 | 3.2 | 0.0 | 0.00 | 4.17 | 0.00 | 93 | 1015.8 |
| 20260507120516 | 8 | 331 | 6.4 | 0.0 | 0.00 | 4.17 | 0.00 | 92 | 1015.8 |
| 20260507120016 | 8 | 314 | 3.2 | 0.0 | 0.00 | 4.17 | 0.00 | 92 | 1015.8 |
| 20260507115516 | 8 | 206 | 3.2 | 0.0 | 0.00 | 4.17 | 0.00 | 92 | 1015.7 |
| 20260507115016 | 8 | 273 | 1.6 | 0.0 | 0.10 | 4.17 | 0.00 | 93 | 1015.8 |
| 20260507114516 | 8 | 280 | 1.6 | 0.0 | 0.03 | 4.17 | 0.00 | 93 | 1015.7 |
| 20260507114016 | 8 | 305 | 1.6 | 0.0 | 0.00 | 4.17 | 0.00 | 94 | 1015.7 |
| 20260507113516 | 8 | 336 | 3.2 | 0.0 | 0.00 | 4.17 | 0.00 | 93 | 1015.6 |
| 20260507113016 | 8 | 271 | 4.8 | 0.0 | 0.00 | 4.17 | 0.00 | 93 | 1015.5 |
| 20260507112516 | 8 | 299 | 4.8 | 0.0 | 0.00 | 4.17 | 0.00 | 93 | 1015.5 |
| 20260507112016 | 8 | 288 | 3.2 | 0.0 | 0.00 | 4.17 | 0.00 | 94 | 1015.4 |
| 20260507111516 | 8 | 298 | 3.2 | 0.0 | 0.03 | 4.17 | 0.00 | 94 | 1015.4 |
| 20260507111016 | 8 | 350 | 3.2 | 0.0 | 0.10 | 4.14 | 0.00 | 94 | 1015.4 |
| 20260507110516 | 7 | 15 | 1.6 | 0.0 | 0.08 | 4.14 | 0.00 | 94 | 1015.3 |
| 20260507110016 | 7 | 261 | 3.2 | 0.0 | 0.18 | 4.11 | 0.00 | 94 | 1015.2 |
| 20260507105516 | 7 | 336 | 4.8 | 0.0 | 0.08 | 4.11 | 0.00 | 94 | 1015.2 |
| 20260507105016 | 7 | 284 | 3.2 | 0.0 | 0.13 | 4.09 | 0.00 | 94 | 1015.3 |
| 20260507104516 | 7 | 323 | 1.6 | 0.0 | 0.10 | 4.09 | 0.00 | 95 | 1015.2 |
| 20260507104016 | 7 | 306 | 3.2 | 0.0 | 0.15 | 4.06 | 0.00 | 95 | 1015.1 |
| 20260507103516 | 7 | 341 | 1.6 | 0.0 | 0.43 | 4.06 | 0.00 | 95 | 1015.0 |
| 20260507103016 | 7 | 10 | 3.2 | 0.0 | 0.23 | 4.04 | 0.00 | 95 | 1015.0 |
| 20260507102516 | 7 | 286 | 3.2 | 0.0 | 0.56 | 4.01 | 0.00 | 95 | 1014.9 |
| 20260507102016 | 7 | 311 | 1.6 | 0.0 | 0.20 | 3.99 | 0.00 | 95 | 1014.9 |
| 20260507101517 | 7 | 294 | 3.2 | 0.0 | 0.18 | 3.96 | 0.00 | 95 | 1014.9 |
| 20260507101016 | 7 | 314 | 4.8 | 0.0 | 0.28 | 3.94 | 0.00 | 95 | 1014.9 |
| 20260507100516 | 7 | 316 | 3.2 | 0.0 | 0.18 | 3.94 | 0.00 | 95 | 1014.9 |
| 20260507100016 | 7 | 304 | 3.2 | 0.0 | 0.36 | 3.89 | 0.00 | 95 | 1014.8 |
| 20260507095516 | 7 | 1 | 3.2 | 0.0 | 0.74 | 3.84 | 0.00 | 95 | 1014.8 |
| 20260507095017 | 7 | 297 | 1.6 | 0.0 | 0.58 | 3.76 | 0.00 | 95 | 1014.7 |
| 20260507094516 | 7 | 44 | 0.0 | 0.0 | 0.71 | 3.71 | 0.00 | 95 | 1014.6 |
| 20260507094016 | 7 | 336 | 3.2 | 0.0 | 0.76 | 3.63 | 0.00 | 95 | 1014.5 |
| 20260507093516 | 7 | 275 | 3.2 | 0.0 | 0.89 | 3.58 | 0.00 | 95 | 1014.5 |
| 20260507093016 | 7 | 332 | 4.8 | 0.0 | 0.28 | 3.53 | 0.00 | 95 | 1014.4 |
| 20260507092516 | 7 | 303 | 3.2 | 0.0 | 0.48 | 3.48 | 0.00 | 95 | 1014.3 |
| 20260507092016 | 7 | 250 | 4.8 | 0.0 | 0.36 | 3.43 | 0.00 | 95 | 1014.2 |
| 20260507091516 | 7 | 298 | 6.4 | 0.0 | 0.38 | 3.40 | 0.00 | 95 | 1014.2 |
| 20260507091016 | 7 | 284 | 3.2 | 0.0 | 0.53 | 3.38 | 0.00 | 95 | 1014.1 |
| 20260507090516 | 7 | 271 | 1.6 | 0.0 | 0.41 | 3.33 | 0.00 | 96 | 1014.1 |
| 20260507090016 | 7 | 287 | 4.8 | 0.0 | 1.14 | 3.28 | 0.00 | 95 | 1014.0 |
| 20260507085516 | 7 | 326 | 4.8 | 0.0 | 0.56 | 3.20 | 0.00 | 96 | 1013.8 |
| 20260507085016 | 7 | 300 | 3.2 | 0.0 | 1.12 | 3.12 | 0.00 | 95 | 1013.9 |
| 20260507084516 | 7 | 287 | 6.4 | 0.0 | 0.43 | 3.05 | 0.00 | 95 | 1013.6 |
| 20260507084016 | 7 | 291 | 3.2 | 0.0 | 0.76 | 3.00 | 0.00 | 95 | 1013.6 |
| 20260507083516 | 7 | 291 | 1.6 | 0.0 | 0.86 | 2.90 | 0.00 | 95 | 1013.6 |
| 20260507083016 | 7 | 286 | 1.6 | 0.0 | 0.46 | 2.82 | 0.00 | 95 | 1013.4 |
| 20260507082516 | 7 | 343 | 3.2 | 0.0 | 0.38 | 2.77 | 0.00 | 95 | 1013.4 |
| 20260507082016 | 7 | 281 | 4.8 | 0.0 | 0.00 | 2.74 | 0.00 | 95 | 1013.4 |
| 20260507081516 | 7 | 285 | 1.6 | 0.0 | 0.23 | 2.72 | 0.00 | 95 | 1013.3 |
| 20260507081016 | 7 | 333 | 6.4 | 0.0 | 0.15 | 2.69 | 0.00 | 95 | 1013.2 |
| 20260507080516 | 7 | 322 | 4.8 | 0.0 | 0.05 | 2.69 | 0.00 | 95 | 1013.2 |
| 20260507080016 | 7 | 282 | 3.2 | 0.0 | 0.79 | 2.67 | 0.00 | 95 | 1013.1 |
| 20260507075516 | 7 | 29 | 1.6 | 0.0 | 0.76 | 2.62 | 0.00 | 95 | 1013.1 |
| 20260507075016 | 7 | 19 | 1.6 | 0.0 | 0.30 | 2.57 | 0.00 | 95 | 1013.0 |
| 20260507074516 | 7 | 285 | 8.0 | 0.0 | 0.18 | 2.51 | 0.00 | 95 | 1013.0 |
| 20260507074016 | 7 | 303 | 6.4 | 0.0 | 0.23 | 2.49 | 0.00 | 95 | 1012.9 |
| 20260507073516 | 7 | 324 | 1.6 | 0.0 | 0.18 | 2.46 | 0.00 | 94 | 1012.9 |
| 20260507073016 | 7 | 271 | 1.6 | 0.0 | 0.18 | 2.44 | 0.00 | 95 | 1012.8 |
| 20260507072516 | 7 | 304 | 6.4 | 0.0 | 0.53 | 2.41 | 0.00 | 95 | 1012.7 |
| 20260507072016 | 7 | 303 | 3.2 | 0.0 | 0.33 | 2.39 | 0.00 | 95 | 1012.7 |
| 20260507071516 | 7 | 355 | 3.2 | 0.0 | 0.28 | 2.34 | 0.00 | 95 | 1012.6 |
| 20260507071016 | 7 | 263 | 4.8 | 0.0 | 0.76 | 2.31 | 0.00 | 95 | 1012.5 |
| 20260507070516 | 7 | 336 | 4.8 | 0.0 | 0.25 | 2.29 | 0.00 | 95 | 1012.5 |
| 20260507070016 | 8 | 334 | 3.2 | 0.0 | 0.48 | 2.26 | 0.00 | 95 | 1012.4 |
| 20260507065516 | 8 | 338 | 4.8 | 0.0 | 0.61 | 2.24 | 0.00 | 95 | 1012.3 |
| 20260507065016 | 8 | 309 | 3.2 | 0.0 | 0.48 | 2.08 | 0.00 | 95 | 1012.2 |
| 20260507064516 | 8 | 319 | 3.2 | 0.0 | 0.97 | 2.06 | 0.00 | 95 | 1012.2 |
| 20260507064016 | 8 | 224 | 3.2 | 0.0 | 0.33 | 1.98 | 0.00 | 94 | 1012.1 |
| 20260507063516 | 8 | 252 | 3.2 | 0.0 | 0.56 | 1.93 | 0.00 | 94 | 1012.0 |
| 20260507063016 | 8 | 339 | 3.2 | 0.0 | 0.79 | 1.85 | 0.00 | 95 | 1011.8 |
| 20260507062516 | 8 | 229 | 4.8 | 0.0 | 1.19 | 1.78 | 0.00 | 94 | 1011.8 |
| 20260507062016 | 8 | 201 | 1.6 | 0.0 | 1.07 | 1.70 | 0.00 | 94 | 1011.7 |
| 20260507061516 | 8 | 205 | 3.2 | 0.0 | 0.74 | 1.63 | 0.00 | 95 | 1011.7 |
| 20260507061016 | 8 | 188 | 3.2 | 0.0 | 0.76 | 1.55 | 0.00 | 94 | 1011.6 |
| 20260507060516 | 8 | 271 | 6.4 | 0.0 | 0.71 | 1.50 | 0.00 | 94 | 1011.5 |
| 20260507060016 | 8 | 264 | 6.4 | 0.0 | 0.56 | 1.45 | 0.00 | 94 | 1011.5 |
| 20260507055517 | 8 | 170 | 1.6 | 0.0 | 0.33 | 1.40 | 0.00 | 95 | 1011.4 |
| 20260507055016 | 8 | 297 | 3.2 | 0.0 | 0.56 | 1.35 | 0.00 | 95 | 1011.3 |
| 20260507054516 | 8 | 269 | 3.2 | 0.0 | 1.30 | 1.32 | 0.00 | 95 | 1011.3 |
| 20260507054016 | 8 | 258 | 3.2 | 0.0 | 0.38 | 1.27 | 0.00 | 95 | 1011.2 |
| 20260507053516 | 8 | 199 | 3.2 | 0.0 | 0.38 | 1.24 | 0.00 | 95 | 1011.2 |
| 20260507053016 | 8 | 254 | 3.2 | 0.0 | 0.18 | 1.22 | 0.00 | 95 | 1011.1 |
| 20260507052516 | 8 | 279 | 3.2 | 0.0 | 0.43 | 1.17 | 0.00 | 95 | 1011.0 |
| 20260507052016 | 8 | 81 | 1.6 | 0.0 | 0.79 | 1.14 | 0.00 | 95 | 1011.0 |
| 20260507051517 | 8 | 246 | 1.6 | 0.0 | 1.17 | 1.04 | 0.00 | 95 | 1010.9 |
| 20260507051016 | 8 | 276 | 4.8 | 0.0 | 2.69 | 0.89 | 0.00 | 95 | 1010.9 |
| 20260507050516 | 8 | 261 | 3.2 | 0.0 | 0.33 | 0.81 | 0.00 | 95 | 1010.8 |
| 20260507050016 | 8 | 279 | 4.8 | 0.0 | 0.58 | 0.79 | 0.00 | 94 | 1010.8 |
| 20260507045516 | 8 | 247 | 3.2 | 0.0 | 0.30 | 0.76 | 0.00 | 95 | 1010.7 |
| 20260507045016 | 8 | 289 | 1.6 | 0.0 | 0.48 | 0.74 | 0.00 | 95 | 1010.7 |
| 20260507044516 | 8 | 172 | 3.2 | 0.0 | 0.74 | 0.69 | 0.00 | 94 | 1010.6 |
| 20260507044016 | 8 | 256 | 1.6 | 0.0 | 0.74 | 0.66 | 0.00 | 95 | 1010.5 |
| 20260507043516 | 8 | 261 | 3.2 | 0.0 | 0.33 | 0.64 | 0.00 | 94 | 1010.5 |
| 20260507043016 | 8 | 187 | 1.6 | 0.0 | 0.25 | 0.61 | 0.00 | 94 | 1010.4 |
| 20260507042516 | 9 | 249 | 3.2 | 0.0 | 0.53 | 0.58 | 0.00 | 94 | 1010.4 |
| 20260507042016 | 9 | 197 | 4.8 | 0.0 | 0.71 | 0.48 | 0.00 | 94 | 1010.3 |
| 20260507041516 | 9 | 159 | 1.6 | 0.0 | 0.20 | 0.46 | 0.00 | 94 | 1010.2 |
| 20260507041016 | 9 | 214 | 1.6 | 0.0 | 0.89 | 0.38 | 0.00 | 94 | 1010.2 |
| 20260507040516 | 9 | 223 | 1.6 | 0.0 | 0.00 | 0.38 | 0.00 | 94 | 1010.2 |
| 20260507040016 | 9 | 242 | 3.2 | 0.0 | 0.00 | 0.36 | 0.00 | 94 | 1010.2 |
| 20260507035516 | 9 | 294 | 3.2 | 0.0 | 0.00 | 0.36 | 0.00 | 94 | 1010.2 |
| 20260507035016 | 9 | 156 | 1.6 | 0.0 | 0.00 | 0.36 | 0.00 | 94 | 1010.1 |
| 20260507034516 | 9 | 298 | 4.8 | 0.0 | 0.00 | 0.36 | 0.00 | 94 | 1010.1 |
| 20260507034016 | 9 | 306 | 3.2 | 0.0 | 0.00 | 0.36 | 0.00 | 94 | 1010.1 |
| 20260507033516 | 9 | 216 | 0.0 | 0.0 | 0.00 | 0.36 | 0.00 | 94 | 1010.1 |
| 20260507033016 | 9 | 195 | 0.0 | 0.0 | 0.00 | 0.36 | 0.00 | 94 | 1010.0 |
| 20260507032516 | 9 | 335 | 3.2 | 0.0 | 0.00 | 0.36 | 0.00 | 94 | 1010.0 |
| 20260507032016 | 9 | 261 | 1.6 | 0.0 | 0.00 | 0.36 | 0.00 | 94 | 1010.0 |
| 20260507031516 | 9 | 253 | 1.6 | 0.0 | 0.00 | 0.36 | 0.00 | 94 | 1010.0 |
| 20260507031016 | 9 | 255 | 3.2 | 0.0 | 0.00 | 0.36 | 0.00 | 94 | 1009.9 |
| 20260507030516 | 9 | 303 | 4.8 | 0.0 | 0.00 | 0.36 | 0.00 | 94 | 1009.9 |
| 20260507030016 | 9 | 270 | 3.2 | 0.0 | 0.00 | 0.36 | 0.00 | 94 | 1009.9 |
| 20260507025516 | 10 | 286 | 1.6 | 0.0 | 0.00 | 0.36 | 0.00 | 94 | 1009.9 |
| 20260507025016 | 10 | 265 | 3.2 | 0.0 | 0.00 | 0.36 | 0.00 | 94 | 1009.9 |
| 20260507024516 | 10 | 274 | 4.8 | 0.0 | 0.00 | 0.36 | 0.00 | 94 | 1009.8 |
| 20260507024016 | 10 | 141 | 1.6 | 0.0 | 0.00 | 0.36 | 0.00 | 94 | 1009.8 |
| 20260507023516 | 10 | 198 | 1.6 | 0.0 | 0.00 | 0.36 | 0.00 | 95 | 1009.8 |
| 20260507023016 | 10 | 279 | 3.2 | 0.0 | 0.00 | 0.36 | 0.00 | 94 | 1009.7 |
| 20260507022516 | 10 | 257 | 1.6 | 0.0 | 0.00 | 0.36 | 0.00 | 95 | 1009.8 |
| 20260507022016 | 10 | 237 | 1.6 | 0.0 | 0.00 | 0.36 | 0.00 | 95 | 1009.7 |
| 20260507021516 | 10 | 213 | 3.2 | 0.0 | 0.00 | 0.36 | 0.00 | 94 | 1009.7 |
| 20260507021016 | 10 | 274 | 3.2 | 0.0 | 0.00 | 0.36 | 0.00 | 95 | 1009.8 |
| 20260507020516 | 10 | 201 | 4.8 | 0.0 | 0.00 | 0.36 | 0.00 | 94 | 1009.8 |
| 20260507020016 | 10 | 24 | 1.6 | 0.0 | 0.00 | 0.36 | 0.00 | 94 | 1009.7 |
| 20260507015516 | 10 | 310 | 6.4 | 0.0 | 0.38 | 0.33 | 0.00 | 94 | 1009.8 |
| 20260507015016 | 10 | 36 | 1.6 | 0.0 | 1.02 | 0.28 | 0.00 | 94 | 1009.8 |
| 20260507014516 | 10 | 276 | 3.2 | 0.0 | 0.43 | 0.23 | 0.00 | 94 | 1009.8 |
| 20260507014016 | 10 | 314 | 3.2 | 0.0 | 0.33 | 0.18 | 0.00 | 93 | 1009.8 |
| 20260507013516 | 10 | 190 | 1.6 | 0.0 | 0.58 | 0.08 | 0.00 | 93 | 1009.9 |
| 20260507013016 | 10 | 226 | 1.6 | 0.0 | 0.00 | 0.08 | 0.00 | 93 | 1009.8 |
| 20260507012516 | 10 | 274 | 1.6 | 0.0 | 0.13 | 0.05 | 0.00 | 93 | 1009.8 |
| 20260507012016 | 10 | 283 | 1.6 | 0.0 | 0.00 | 0.05 | 0.00 | 93 | 1009.9 |
| 20260507011516 | 10 | 272 | 3.2 | 0.0 | 0.38 | 0.05 | 0.00 | 93 | 1009.8 |
| 20260507011016 | 10 | 288 | 1.6 | 0.0 | 0.03 | 0.05 | 0.00 | 93 | 1009.7 |
| 20260507010516 | 10 | 209 | 1.6 | 0.0 | 0.05 | 0.05 | 0.00 | 92 | 1009.8 |
| 20260507010016 | 10 | 267 | 1.6 | 0.0 | 0.18 | 0.03 | 0.00 | 92 | 1009.8 |
| 20260507005516 | 10 | 146 | 1.6 | 0.0 | 0.10 | 0.00 | 0.00 | 92 | 1009.7 |
| 20260507005016 | 10 | 155 | 0.0 | 0.0 | 0.00 | 0.00 | 0.00 | 92 | 1009.7 |
| 20260507004516 | 10 | 301 | 1.6 | 0.0 | 0.00 | 0.00 | 0.00 | 91 | 1009.5 |
| 20260507004016 | 10 | 166 | 1.6 | 0.0 | 0.00 | 0.00 | 0.00 | 91 | 1009.5 |
| 20260507003516 | 10 | 246 | 0.0 | 0.0 | 0.00 | 0.00 | 0.00 | 91 | 1009.6 |
| 20260507003016 | 10 | 222 | 3.2 | 0.0 | 0.00 | 0.00 | 0.00 | 90 | 1009.5 |
| 20260507002516 | 10 | 8 | 0.0 | 0.0 | 0.00 | 0.00 | 0.00 | 91 | 1009.5 |
| 20260507002016 | 10 | 267 | 0.0 | 0.0 | 0.00 | 0.00 | 0.00 | 91 | 1009.4 |
| 20260507001516 | 10 | 205 | 1.6 | 0.0 | 0.00 | 0.00 | 0.00 | 91 | 1009.4 |
| 20260507001016 | 10 | 136 | 0.0 | 0.0 | 0.00 | 0.00 | 0.00 | 91 | 1009.3 |
| 20260507000516 | 10 | 276 | 6.4 | 0.0 | 0.00 | 0.00 | 0.00 | 91 | 1009.3 |
| 20260507000016 | 10 | 267 | 3.2 | 0.0 | 0.00 | 0.84 | 0.00 | 91 | 1009.3 |
| 20260506235516 | 11 | 237 | 3.2 | 0.0 | 0.00 | 0.84 | 0.00 | 91 | 1009.4 |
| 20260506235016 | 11 | 226 | 0.0 | 0.0 | 0.00 | 0.84 | 0.00 | 91 | 1009.4 |
| 20260506234516 | 11 | 173 | 1.6 | 0.0 | 0.00 | 0.84 | 0.00 | 92 | 1009.4 |
| 20260506234016 | 11 | 161 | 1.6 | 0.0 | 0.00 | 0.84 | 0.00 | 92 | 1009.4 |
| 20260506233516 | 11 | 170 | 1.6 | 0.0 | 0.00 | 0.84 | 0.00 | 92 | 1009.4 |
| 20260506233016 | 11 | 319 | 3.2 | 0.0 | 0.00 | 0.84 | 0.00 | 93 | 1009.3 |
| 20260506232516 | 11 | 290 | 3.2 | 0.0 | 0.00 | 0.84 | 0.00 | 92 | 1009.2 |
| 20260506232016 | 11 | 232 | 3.2 | 0.0 | 0.00 | 0.84 | 0.00 | 92 | 1009.2 |
| 20260506231516 | 11 | 341 | 6.4 | 0.0 | 0.00 | 0.84 | 0.00 | 92 | 1009.1 |
| 20260506231016 | 11 | 223 | 3.2 | 0.0 | 0.00 | 0.84 | 0.00 | 93 | 1009.2 |
| 20260506230516 | 11 | 198 | 3.2 | 0.0 | 0.00 | 0.84 | 0.00 | 92 | 1009.1 |
| 20260506230016 | 11 | 246 | 4.8 | 0.0 | 0.00 | 0.84 | 0.00 | 93 | 1009.1 |
| 20260506225516 | 11 | 311 | 3.2 | 0.0 | 0.00 | 0.84 | 0.00 | 92 | 1009.1 |
| 20260506225016 | 11 | 262 | 3.2 | 0.0 | 0.00 | 0.84 | 0.00 | 92 | 1009.0 |
| 20260506224516 | 11 | 313 | 3.2 | 0.0 | 0.00 | 0.84 | 0.00 | 93 | 1008.9 |
| 20260506224016 | 11 | 214 | 1.6 | 0.0 | 0.00 | 0.84 | 0.00 | 93 | 1008.9 |
| 20260506223516 | 11 | 214 | 1.6 | 0.0 | 0.00 | 0.84 | 0.00 | 93 | 1008.9 |
| 20260506223016 | 11 | 229 | 1.6 | 0.0 | 0.00 | 0.84 | 0.00 | 93 | 1008.9 |
| 20260506222516 | 11 | 248 | 1.6 | 0.0 | 0.00 | 0.84 | 0.00 | 92 | 1008.9 |
| 20260506222016 | 11 | 279 | 1.6 | 0.0 | 0.00 | 0.84 | 0.00 | 92 | 1008.9 |
| 20260506221516 | 11 | 239 | 3.2 | 0.0 | 0.00 | 0.84 | 0.00 | 92 | 1008.9 |
| 20260506221016 | 11 | 222 | 1.6 | 0.0 | 0.00 | 0.84 | 0.00 | 92 | 1008.8 |
| 20260506220516 | 11 | 239 | 3.2 | 0.0 | 0.00 | 0.84 | 0.00 | 92 | 1008.7 |
| 20260506220016 | 11 | 226 | 3.2 | 0.0 | 0.00 | 0.84 | 0.00 | 92 | 1008.7 |
| 20260506215517 | 11 | 308 | 1.6 | 0.0 | 0.00 | 0.84 | 0.00 | 93 | 1008.7 |
| 20260506215016 | 11 | 215 | 4.8 | 0.0 | 0.00 | 0.84 | 0.00 | 92 | 1008.7 |
| 20260506214517 | 11 | 272 | 4.8 | 0.0 | 0.00 | 0.84 | 0.00 | 92 | 1008.6 |
| 20260506214017 | 11 | 347 | 3.2 | 0.0 | 0.00 | 0.84 | 0.00 | 93 | 1008.6 |
| 20260506213517 | 11 | 214 | 3.2 | 0.0 | 0.00 | 0.84 | 0.00 | 93 | 1008.6 |
| 20260506213017 | 11 | 267 | 1.6 | 0.0 | 0.00 | 0.84 | 0.00 | 93 | 1008.6 |
| 20260506212517 | 11 | 269 | 1.6 | 0.0 | 0.00 | 0.84 | 0.00 | 93 | 1008.6 |
| 20260506212017 | 11 | 254 | 1.6 | 0.0 | 0.00 | 0.84 | 0.00 | 93 | 1008.6 |
| 20260506211516 | 12 | 316 | 1.6 | 0.0 | 0.00 | 0.84 | 0.00 | 93 | 1008.6 |
| 20260506211017 | 12 | 264 | 3.2 | 0.0 | 0.00 | 0.84 | 0.00 | 93 | 1008.5 |
| 20260506210517 | 12 | 289 | 1.6 | 0.0 | 0.00 | 0.84 | 0.00 | 93 | 1008.5 |
| 20260506210017 | 12 | 316 | 1.6 | 0.0 | 0.00 | 0.84 | 0.00 | 93 | 1008.4 |
| 20260506205517 | 12 | 170 | 3.2 | 0.0 | 0.00 | 0.84 | 0.00 | 93 | 1008.3 |
| 20260506205016 | 12 | 226 | 1.6 | 0.0 | 0.00 | 0.84 | 0.00 | 93 | 1008.4 |
| 20260506204517 | 12 | 261 | 3.2 | 0.0 | 0.00 | 0.84 | 0.00 | 93 | 1008.3 |
| 20260506204017 | 12 | 274 | 9.7 | 0.0 | 0.00 | 0.84 | 0.00 | 93 | 1008.3 |
| 20260506203517 | 12 | 295 | 3.2 | 0.0 | 0.00 | 0.84 | 0.00 | 93 | 1008.4 |
| 20260506203017 | 12 | 282 | 3.2 | 0.0 | 0.00 | 0.84 | 0.00 | 93 | 1008.4 |
| 20260506202517 | 12 | 317 | 6.4 | 0.0 | 0.00 | 0.84 | 0.00 | 92 | 1008.3 |
| 20260506202017 | 12 | 267 | 3.2 | 0.0 | 0.00 | 0.84 | 0.00 | 92 | 1008.2 |
| 20260506201516 | 12 | 219 | 1.6 | 0.0 | 0.00 | 0.84 | 0.00 | 92 | 1008.2 |
| 20260506201017 | 12 | 148 | 3.2 | 0.0 | 0.00 | 0.84 | 0.00 | 92 | 1008.3 |
| 20260506200517 | 12 | 242 | 3.2 | 0.0 | 0.00 | 0.84 | 0.00 | 92 | 1008.2 |
| 20260506200017 | 12 | 302 | 3.2 | 0.0 | 0.00 | 0.84 | 0.00 | 92 | 1008.3 |
| 20260506195517 | 12 | 271 | 1.6 | 0.0 | 0.00 | 0.84 | 0.00 | 92 | 1008.3 |
| 20260506195016 | 12 | 251 | 3.2 | 0.0 | 0.00 | 0.81 | 0.00 | 91 | 1008.3 |
| 20260506194517 | 12 | 139 | 1.6 | 0.0 | 0.00 | 0.81 | 0.00 | 92 | 1008.2 |
| 20260506194016 | 12 | 200 | 3.2 | 0.0 | 0.00 | 0.81 | 0.00 | 92 | 1008.1 |
| 20260506193517 | 12 | 263 | 3.2 | 0.0 | 0.00 | 0.81 | 0.00 | 91 | 1008.2 |
| 20260506193017 | 12 | 158 | 1.6 | 0.0 | 0.03 | 0.81 | 0.00 | 90 | 1008.1 |
| 20260506192517 | 12 | 310 | 3.2 | 0.0 | 0.03 | 0.81 | 0.00 | 91 | 1008.0 |
| 20260506192017 | 12 | 134 | 1.6 | 0.0 | 0.10 | 0.79 | 0.00 | 91 | 1007.9 |
| 20260506191516 | 12 | 309 | 3.2 | 0.0 | 0.15 | 0.79 | 0.00 | 91 | 1007.8 |
| 20260506191017 | 12 | 2 | 1.6 | 0.0 | 0.00 | 0.79 | 0.00 | 91 | 1007.6 |
| 20260506190517 | 13 | 250 | 0.0 | 0.0 | 0.00 | 0.79 | 0.00 | 91 | 1007.7 |
| 20260506190018 | 13 | 173 | 1.6 | 0.0 | 0.00 | 0.79 | 0.00 | 91 | 1007.7 |
| 20260506185517 | 13 | 196 | 1.6 | 0.0 | 0.00 | 0.79 | 0.00 | 91 | 1007.7 |
| 20260506185016 | 13 | 334 | 1.6 | 0.0 | 0.00 | 0.79 | 0.00 | 91 | 1007.7 |
| 20260506184517 | 13 | 271 | 1.6 | 0.0 | 0.00 | 0.79 | 0.00 | 91 | 1007.6 |
| 20260506184017 | 13 | 246 | 3.2 | 0.0 | 0.00 | 0.79 | 0.00 | 91 | 1007.5 |
| 20260506183517 | 13 | 162 | 1.6 | 0.0 | 0.94 | 0.74 | 0.00 | 91 | 1007.5 |
| 20260506183017 | 13 | 255 | 0.0 | 0.0 | 0.00 | 0.71 | 0.00 | 91 | 1007.6 |
| 20260506182517 | 13 | 236 | 1.6 | 0.0 | 0.00 | 0.71 | 0.00 | 90 | 1007.4 |
| 20260506182017 | 13 | 248 | 4.8 | 0.0 | 0.00 | 0.71 | 0.00 | 90 | 1007.2 |
| 20260506181516 | 13 | 260 | 1.6 | 0.0 | 0.00 | 0.71 | 0.00 | 90 | 1007.2 |
| 20260506181017 | 13 | 248 | 1.6 | 0.0 | 0.00 | 0.71 | 0.00 | 90 | 1007.3 |
| 20260506180517 | 13 | 318 | 3.2 | 0.0 | 0.00 | 0.71 | 0.00 | 89 | 1007.2 |
| 20260506180017 | 13 | 301 | 3.2 | 0.0 | 0.00 | 0.71 | 0.00 | 89 | 1007.1 |
| 20260506175517 | 13 | 328 | 0.0 | 0.0 | 0.03 | 0.71 | 0.00 | 89 | 1007.0 |
| 20260506175016 | 13 | 317 | 4.8 | 0.0 | 0.00 | 0.71 | 0.00 | 89 | 1007.0 |
| 20260506174517 | 13 | 256 | 4.8 | 0.0 | 0.00 | 0.71 | 0.00 | 89 | 1006.8 |
| 20260506174017 | 14 | 285 | 1.6 | 0.0 | 0.00 | 0.71 | 0.00 | 88 | 1006.9 |
| 20260506173517 | 14 | 1 | 3.2 | 0.0 | 0.03 | 0.71 | 0.00 | 87 | 1006.9 |
| 20260506173017 | 14 | 317 | 8.0 | 0.0 | 1.68 | 0.66 | 0.00 | 86 | 1006.9 |
| 20260506172517 | 15 | 307 | 3.2 | 0.0 | 0.00 | 0.58 | 0.00 | 85 | 1007.1 |
| 20260506172017 | 15 | 348 | 3.2 | 0.0 | 0.51 | 0.56 | 0.00 | 84 | 1007.0 |
| 20260506171516 | 15 | 339 | 1.6 | 0.0 | 0.13 | 0.56 | 0.00 | 83 | 1006.8 |
| 20260506171017 | 15 | 284 | 4.8 | 0.0 | 0.18 | 0.53 | 0.00 | 81 | 1006.8 |
| 20260506170517 | 15 | 302 | 3.2 | 0.0 | 0.00 | 0.53 | 0.00 | 81 | 1006.8 |
| 20260506170017 | 15 | 347 | 6.4 | 0.0 | 0.00 | 0.53 | 0.00 | 80 | 1006.8 |
| 20260506165517 | 15 | 314 | 6.4 | 0.0 | 0.00 | 0.53 | 0.00 | 79 | 1006.8 |
| 20260506165016 | 16 | 183 | 1.6 | 0.0 | 0.00 | 0.53 | 0.00 | 79 | 1006.8 |
| 20260506164517 | 16 | 279 | 1.6 | 0.0 | 0.00 | 0.53 | 0.00 | 79 | 1006.7 |
| 20260506164017 | 16 | 262 | 1.6 | 0.0 | 0.00 | 0.53 | 0.00 | 79 | 1006.7 |
| 20260506163517 | 16 | 310 | 3.2 | 0.0 | 0.00 | 0.53 | 0.00 | 79 | 1006.7 |
| 20260506163017 | 16 | 275 | 1.6 | 0.0 | 0.00 | 0.53 | 0.00 | 79 | 1006.5 |
| 20260506162517 | 16 | 319 | 4.8 | 0.0 | 0.00 | 0.53 | 0.00 | 78 | 1006.5 |
| 20260506162017 | 16 | 296 | 4.8 | 0.0 | 0.00 | 0.53 | 0.00 | 78 | 1006.5 |
| 20260506161516 | 16 | 337 | 3.2 | 0.0 | 0.00 | 0.53 | 0.00 | 77 | 1006.6 |
| 20260506161017 | 16 | 290 | 3.2 | 0.0 | 0.00 | 0.53 | 0.00 | 77 | 1006.6 |
| 20260506160517 | 16 | 325 | 1.6 | 0.0 | 0.00 | 0.53 | 0.00 | 77 | 1006.6 |
| 20260506160017 | 16 | 276 | 3.2 | 0.0 | 0.00 | 0.53 | 0.00 | 76 | 1006.6 |
| 20260506155517 | 17 | 283 | 3.2 | 0.0 | 0.00 | 0.53 | 0.00 | 76 | 1006.5 |
| 20260506155016 | 17 | 283 | 3.2 | 0.0 | 0.00 | 0.53 | 0.00 | 76 | 1006.4 |
| 20260506154517 | 17 | 258 | 3.2 | 0.0 | 0.00 | 0.53 | 0.00 | 74 | 1006.5 |
| 20260506154017 | 18 | 315 | 3.2 | 0.0 | 0.00 | 0.53 | 0.00 | 72 | 1006.5 |
| 20260506153517 | 17 | 282 | 0.0 | 0.0 | 0.00 | 0.53 | 0.00 | 71 | 1006.5 |
| 20260506153017 | 18 | 337 | 4.8 | 0.0 | 0.00 | 0.53 | 0.00 | 70 | 1006.5 |
| 20260506152517 | 18 | 247 | 4.8 | 0.0 | 0.00 | 0.53 | 0.00 | 70 | 1006.5 |
| 20260506152017 | 19 | 259 | 6.4 | 0.0 | 0.00 | 0.53 | 0.00 | 67 | 1006.5 |
| 20260506151516 | 19 | 295 | 3.2 | 0.0 | 0.00 | 0.53 | 0.00 | 68 | 1006.6 |
| 20260506151017 | 19 | 286 | 3.2 | 0.0 | 0.00 | 0.53 | 0.00 | 67 | 1006.6 |
| 20260506150517 | 19 | 310 | 1.6 | 0.0 | 0.00 | 0.53 | 0.00 | 67 | 1006.6 |
| 20260506150017 | 18 | 314 | 4.8 | 0.0 | 0.00 | 0.53 | 0.00 | 69 | 1006.6 |
| 20260506145517 | 18 | 313 | 4.8 | 0.0 | 0.00 | 0.53 | 0.00 | 69 | 1006.7 |
| 20260506145016 | 18 | 297 | 0.0 | 0.0 | 0.00 | 0.53 | 0.00 | 69 | 1006.6 |
| 20260506144517 | 18 | 220 | 1.6 | 0.0 | 0.00 | 0.53 | 0.00 | 70 | 1006.7 |
| 20260506144017 | 18 | 330 | 3.2 | 0.0 | 0.00 | 0.53 | 0.00 | 71 | 1006.8 |
| 20260506143517 | 18 | 331 | 1.6 | 0.0 | 0.00 | 0.53 | 0.00 | 71 | 1006.7 |
| 20260506143017 | 18 | 311 | 3.2 | 0.0 | 0.00 | 0.53 | 0.00 | 71 | 1006.7 |
| 20260506142517 | 18 | 302 | 3.2 | 0.0 | 0.00 | 0.53 | 0.00 | 70 | 1006.7 |
| 20260506142017 | 18 | 31 | 3.2 | 0.0 | 0.00 | 0.53 | 0.00 | 69 | 1006.6 |
| 20260506141516 | 19 | 266 | 3.2 | 0.0 | 0.00 | 0.53 | 0.00 | 70 | 1006.6 |
| 20260506141017 | 18 | 303 | 3.2 | 0.0 | 0.00 | 0.53 | 0.00 | 70 | 1006.7 |